Weather in Meppen

Germany     52°42′01″N   7°17′44″E
temp.,
°C
wind,
m/s
gust,
m/s
humid.,
%
clouds,
%
prec.,
mm/h
press.,
hPa
HPBL,
m
31 july, sat
sat3123:00+14sw33946 0.9 100551
02:00+13ssw6149071 1.0 1004636
05:00+14ssw91585100 0.0 10031015
08:00+14sw91487100 0.1 10031185
11:00+17wsw10148299 0.4 10041257
14:00+18wsw9138493 1.9 10061214
17:00+18w8118240 1.1 10071171
20:00+17w611862 1.8 1007805
1 august, sun
sun123:00+14wsw38955 0.0 1008172
02:00+12sw38965 0.0 1008160
05:00+12sw379741 0.0 1008161
08:00+14wsw469215 0.0 1008243
11:00+18w347750 0.6 1009894
14:00+19wsw3473100 3.6 10081036
17:00+19nnw447899 4.1 1009780
20:00+17n468441 5.1 1009335
2 august, mon
mon223:00+14nnw358879 0.0 1010113
02:00+12wnw349046 0.0 101156
05:00+13wnw368798 0.0 1012147
08:00+13w358391 0.0 1013223
11:00+17w346964 0.2 10131084
14:00+18wnw346647 0.8 10141067
17:00+19wnw456211 0.1 10141261
20:00+17nnw247423 0.2 1014152
3 august, tue
tue323:00+12nne33855 0.0 101433
02:00+11ene118645 0.0 101512
05:00+13ene2277100 0.0 101455
08:00+14ene2379100 0.0 1014143
11:00+14ene248386 0.1 1014165
14:00+19ene336757 0.1 1013986
17:00+18ne447396 0.6 1012819
20:00+16n3684100 1.0 1013168
4 august, wed
wed423:00+14nne4885100 0.0 1013245
02:00+14nne3683100 0.0 1014191
05:00+13nne378197 0.0 1013202
08:00+14nne258499 0.1 1014197
11:00+16ne357785 0.1 1014438
14:00+15ne2481100 0.1 1014260
17:00+17n2378100 0.0 1014171
20:00+17n238219 0.1 1013137